Zurück zum Katalog

SL-8 DEB

AktivSSO
NORAD 27768·DEBRIS·🇷🇺 Russia

Gestartet Nov 28, 2002 von Plesetsk Cosmodrome

Loading…

Nächste Überflüge (nächste 24 Stunden)

TLE

AktuellSource: Space-Track

Epoche: Sep 14, 2026, 14:56 UTC

1 27768U 02054D   26257.62222549  .00001721  00000-0  24900-3 0  9994
2 27768  98.2485 134.3940 0025563 267.3137  92.5147 14.77313395268526

Verfolge SL-8 DEB in Echtzeit mit AllMySat

Download on the App Store